Vertical_Velocity
-1 -1 -2 -1 -1 -1 -1 -0 0 0 1 -0 -1 -1 -1 -1 -1 -1 0 1 -0 -0 1 -0 1 -0 0 0 -2 -1 0 -1 1 0 -0 -1 -4 -1 -0 -0 -3 -0 -0
-0 -1 -0 -1 -1 0 1 -1 -0 1 0 -0 -1 -1 -2 -2 1 -0 -1 -1 -1 0 2 -0 1 -0 -2 0 0 -0 -1 -1 -1 1 -1 -1 -1 -0 0 1 -0 -4 -2
-0 1 -1 -1 1 0 1 -1 -2 -2 -1 -1 -1 1 -1 -0 -4 -1 -1 -1 -0 -2 -3 -1 -2 -2 1 -1 -1 -1 -1 -0 2 -0 1 -2 -1 -1 1 -1 -1 -0 -1
1 -0 1 1 -1 -0 -2 0 -1 0 -2 -0 -0 -1 -0 0 -1 3 1 -3 -3 -1 -0 -0 -1 -1 1 -3 -3 -3 -0 0 0 0 -0 0 -0 -1 -0 -1 -2 -2 -0
1 -0 -1 -1 1 0 1 -1 -0 0 -1 -3 -1 -2 -0 1 1 -1 -0 -2 4 -3 -1 -1 -1 -4 -0 -2 -2 -1 -0 -1 0 0 -0 -1 -1 -1 -0 -1 -2 -3 -2
0 1 -1 -0 -2 0 -0 2 0 -0 -1 0 -0 1 -3 3 2 -2 1 -2 1 -1 1 -0 -1 -1 -1 -2 -1 0 -1 -0 -0 0 0 -0 -0 -1 -1 -0 0 -0 -1
2 -0 1 -0 -1 -1 -0 -0 2 -2 -1 1 1 -0 -3 0 2 1 0 -0 0 1 -0 -3 -1 -1 -1 -0 -1 -1 -0 -1 -1 0 0 0 1 -0 -1 -2 -1 -1 -2
2 1 -0 -1 -1 -2 -2 -0 1 1 0 1 1 -1 1 0 -0 4 0 1 -1 -1 -2 -1 1 -1 -1 -1 -2 -2 -2 -1 -0 -1 0 0 0 -1 -1 0 -1 -1 -1
1 -0 -2 -0 -2 -0 0 -0 3 -0 1 -2 -0 0 -0 -0 2 1 -0 -5 -0 -2 -1 -1 0 -0 1 -1 -2 -2 -2 -1 -1 -1 -0 -0 0 0 -1 0 -1 -1 0
1 0 -0 -0 0 -2 1 -2 1 0 -2 -0 0 -0 1 2 -1 -1 -3 1 -1 -1 3 -1 -1 -1 -1 -1 0 -0 -0 -1 -1 -0 -1 -1 -0 1 0 -0 -0 -0 -0
-0 0 -1 -1 0 2 1 2 0 0 -2 2 -2 2 2 1 -2 -1 2 1 -0 -1 0 -3 -1 -0 -0 -0 -2 -2 -2 -0 -1 -1 -1 -1 -0 0 0 0 0 0 -1
1 1 -0 0 0 -2 -0 2 1 2 0 2 -1 4 1 -1 -1 0 0 1 1 0 -2 -3 -1 -1 -0 -0 -0 -1 -1 -1 -1 -1 -0 -0 -1 -0 -0 -0 -1 -1 -1
-1 -0 -0 -1 -0 -0 -0 -1 3 1 1 3 1 0 2 -1 -0 3 1 -2 -1 -1 -3 -1 -0 -1 -2 -1 -0 -1 -0 -1 -1 -1 -0 -0 -1 -2 -2 -1 -1 -2 -1
-0 -1 -1 0 -0 -3 0 0 -3 -1 2 3 -0 1 0 -2 1 2 1 -1 -0 -3 -1 -1 -2 -1 -1 -1 -0 0 -0 -0 -0 -1 -1 -0 0 0 0 -1 -1 -2 -1
-1 -1 -1 0 0 3 0 -1 1 -1 0 2 3 -0 -1 1 2 1 -1 -1 -1 -1 1 -1 0 -1 -0 -0 -0 -0 0 -1 -0 0 -0 -0 -0 -1 -0 -1 -1 -0 -2
-0 -1 -1 -2 -2 -0 1 2 0 0 -0 1 -1 -1 0 -0 2 1 -1 -1 -2 -1 -2 2 1 0 -1 -1 -0 1 0 -1 -1 -1 -1 -1 -1 -0 -0 -0 -1 -2 -1
-0 0 1 -1 -1 -1 -1 -1 0 -0 0 1 -0 -2 1 2 0 -0 -1 -0 0 -0 1 1 1 -0 -0 -1 -1 -1 -0 -1 0 -0 -0 -0 -1 -0 -0 0 0 -0 -2
2 3 -11 -1 0 0 -0 0 1 -1 -1 1 1 -0 2 2 0 -1 0 -1 -1 1 1 1 1 -0 -1 -1 -1 -0 0 -1 -1 -1 -1 -1 -1 -1 0 1 1 -1 -2
2 -0 -1 1 1 3 2 0 1 1 0 1 1 -1 2 1 0 -1 0 -2 1 1 0 -0 0 1 0 -1 -1 0 -0 0 0 0 0 -1 -0 -1 0 -0 -1 1 -2
1 4 2 4 0 -2 1 1 0 -1 -1 -1 -0 -1 2 0 -2 1 -0 -1 1 1 1 1 1 0 -1 -1 0 -0 0 -0 -0 -1 1 0 1 -1 -2 -2 -0 -2 1
0 2 2 1 1 1 -1 -5 -1 -4 -0 1 0 2 4 -2 -0 -1 2 1 1 0 1 0 1 1 -0 -0 -0 -1 -1 1 1 1 1 1 0 -1 -0 -2 -2 -1 -1
2 3 3 -1 3 1 1 3 1 1 1 -5 -5 -3 -1 -5 0 -2 2 1 -0 -0 1 0 1 0 0 0 -0 -0 -0 -0 2 2 0 1 1 0 -1 -0 0 1 0
1 2 2 2 -0 3 2 1 2 2 2 1 1 1 -2 -2 -3 -3 -2 -2 -3 0 2 -0 0 1 1 1 0 -1 -2 0 2 0 -1 0 1 1 1 -0 1 0 -0
-0 1 2 3 2 2 2 1 1 4 4 3 3 2 2 2 1 1 -2 0 -2 -2 0 0 -1 -1 1 2 0 0 -1 -1 -1 -0 -0 -0 -0 2 -0 -1 -0 1 0
-0 1 1 0 -0 1 1 2 1 2 2 2 1 1 2 2 -0 1 2 0 -1 -1 3 0 -0 -1 -0 -0 -0 0 1 1 -1 2 1 -0 -0 2 1 0 1 0 1
1 1 -0 -1 0 -0 -0 0 0 2 1 1 1 1 1 1 1 2 1 1 -0 1 1 2 0 -1 -1 -1 -1 -1 -0 0 -0 2 -0 -4 -5 -2 -1 -2 -1 -2 -2
Height
1517 1517 1517 1517 1516 1516 1516 1516 1516 1515 1514 1512 1512 1511 1510 1509 1508 1508 1508 1508 1508 1509 1509 1509 1509 1510 1510 1510 1510 1511 1510 1510 1510 1509 1508 1506 1506 1503 1501 1498 1497 1497 1497
1514 1514 1514 1513 1513 1513 1512 1512 1512 1512 1510 1509 1508 1508 1507 1506 1504 1503 1504 1505 1504 1505 1506 1505 1506 1505 1507 1507 1507 1508 1508 1507 1507 1505 1505 1503 1501 1499 1497 1495 1495 1495 1495
1512 1511 1510 1509 1508 1508 1508 1508 1508 1508 1507 1506 1506 1504 1503 1502 1501 1501 1501 1502 1502 1502 1504 1503 1504 1504 1504 1505 1505 1504 1505 1504 1502 1501 1500 1499 1497 1496 1494 1493 1493 1492 1492
1509 1507 1506 1505 1504 1504 1504 1504 1504 1503 1503 1504 1504 1503 1502 1501 1500 1498 1499 1500 1501 1502 1503 1502 1502 1502 1502 1502 1502 1502 1502 1501 1499 1498 1496 1494 1493 1492 1491 1490 1490 1490 1489
1503 1503 1502 1502 1501 1501 1501 1500 1500 1499 1499 1501 1501 1501 1501 1501 1501 1498 1499 1500 1502 1502 1503 1502 1502 1501 1501 1500 1500 1500 1499 1498 1497 1495 1493 1492 1490 1489 1488 1487 1486 1486 1486
1499 1499 1498 1498 1497 1498 1498 1498 1497 1496 1498 1499 1499 1499 1502 1502 1503 1500 1499 1501 1501 1502 1501 1500 1500 1499 1498 1498 1497 1497 1496 1495 1494 1492 1491 1489 1488 1486 1486 1485 1484 1483 1483
1496 1495 1494 1493 1493 1494 1496 1496 1495 1495 1497 1499 1499 1499 1502 1502 1501 1501 1499 1500 1500 1500 1500 1499 1499 1498 1497 1496 1495 1494 1493 1491 1491 1490 1488 1487 1485 1483 1483 1482 1481 1480 1480
1492 1491 1490 1489 1490 1491 1493 1494 1494 1494 1497 1498 1499 1500 1502 1502 1502 1500 1499 1499 1499 1499 1499 1498 1497 1495 1495 1494 1493 1491 1490 1489 1488 1487 1485 1484 1482 1481 1480 1479 1478 1477 1476
1487 1486 1486 1486 1487 1489 1490 1492 1493 1493 1496 1497 1500 1500 1501 1501 1501 1500 1499 1498 1499 1498 1498 1497 1496 1494 1492 1491 1490 1489 1488 1486 1485 1484 1483 1481 1480 1478 1477 1477 1476 1475 1474
1482 1482 1482 1483 1484 1485 1487 1490 1492 1493 1495 1498 1499 1500 1500 1500 1500 1499 1499 1497 1498 1497 1496 1494 1494 1492 1490 1488 1488 1487 1485 1484 1483 1481 1480 1478 1478 1477 1476 1475 1475 1474 1474
1477 1477 1478 1480 1482 1484 1486 1489 1491 1493 1495 1497 1497 1499 1499 1499 1499 1498 1498 1497 1496 1496 1494 1493 1492 1490 1489 1487 1485 1484 1483 1482 1480 1479 1477 1476 1475 1475 1474 1473 1473 1472 1472
1473 1474 1476 1478 1480 1482 1485 1488 1490 1492 1494 1495 1496 1498 1498 1497 1498 1497 1496 1496 1495 1494 1492 1492 1490 1488 1486 1484 1483 1481 1480 1479 1477 1476 1475 1474 1473 1473 1472 1471 1470 1470 1469
1470 1471 1473 1476 1478 1481 1484 1486 1488 1490 1492 1493 1494 1495 1495 1495 1496 1495 1494 1493 1493 1492 1490 1489 1487 1485 1483 1482 1480 1479 1477 1476 1475 1474 1473 1472 1471 1470 1469 1468 1467 1466 1465
1467 1469 1471 1473 1476 1479 1481 1484 1486 1488 1490 1491 1492 1492 1493 1493 1493 1492 1491 1491 1489 1488 1487 1485 1484 1482 1480 1479 1477 1476 1474 1473 1472 1471 1470 1469 1468 1467 1465 1464 1463 1462 1461
1465 1466 1468 1471 1473 1476 1479 1481 1484 1486 1487 1488 1488 1489 1490 1490 1489 1489 1488 1488 1487 1485 1484 1483 1481 1479 1478 1476 1474 1473 1471 1470 1468 1467 1466 1465 1464 1462 1461 1460 1459 1458 1456
1462 1463 1465 1468 1470 1473 1475 1477 1479 1481 1483 1483 1484 1485 1486 1486 1485 1485 1484 1484 1482 1481 1480 1479 1478 1476 1474 1473 1471 1470 1468 1466 1465 1463 1462 1461 1460 1458 1457 1456 1455 1454 1452
1459 1460 1463 1464 1466 1469 1471 1473 1475 1477 1477 1479 1480 1480 1481 1482 1481 1480 1480 1480 1479 1478 1477 1476 1474 1472 1471 1469 1467 1465 1464 1463 1461 1459 1458 1457 1456 1455 1453 1452 1451 1449 1447
1454 1456 1457 1459 1462 1464 1466 1468 1470 1471 1472 1474 1475 1475 1476 1476 1476 1476 1476 1476 1475 1474 1473 1471 1470 1468 1466 1464 1463 1461 1460 1458 1457 1455 1454 1453 1452 1450 1448 1447 1446 1444 1442
1449 1450 1453 1455 1457 1459 1461 1462 1464 1465 1466 1468 1469 1470 1470 1470 1470 1471 1471 1470 1470 1469 1468 1466 1465 1463 1461 1459 1458 1457 1455 1454 1452 1451 1449 1448 1447 1445 1443 1442 1440 1439 1436
1444 1445 1447 1448 1451 1453 1454 1456 1457 1458 1460 1461 1462 1463 1464 1464 1464 1465 1465 1465 1464 1464 1463 1461 1460 1458 1456 1454 1453 1451 1449 1448 1447 1445 1444 1442 1441 1438 1437 1436 1434 1432 1430
1439 1440 1441 1443 1444 1445 1446 1448 1450 1451 1452 1453 1455 1457 1458 1457 1458 1459 1459 1459 1458 1458 1457 1455 1453 1452 1450 1448 1447 1445 1444 1442 1441 1439 1437 1436 1434 1432 1431 1429 1427 1425 1423
1433 1434 1435 1436 1437 1438 1438 1439 1440 1441 1443 1444 1446 1448 1450 1449 1451 1452 1452 1452 1453 1451 1450 1449 1447 1445 1444 1442 1441 1439 1438 1436 1434 1432 1430 1429 1427 1425 1424 1422 1420 1418 1415
1428 1429 1430 1431 1431 1431 1432 1432 1432 1433 1434 1435 1436 1438 1438 1439 1440 1442 1443 1444 1444 1445 1443 1442 1440 1439 1437 1436 1434 1432 1430 1429 1427 1425 1423 1422 1420 1418 1417 1414 1412 1410 1408
1423 1424 1424 1424 1424 1424 1424 1424 1424 1424 1425 1426 1428 1429 1430 1431 1432 1433 1433 1435 1436 1437 1436 1435 1433 1432 1431 1429 1427 1425 1423 1421 1419 1417 1415 1413 1411 1410 1408 1406 1404 1403 1401
1418 1418 1418 1418 1418 1417 1417 1417 1416 1416 1417 1418 1419 1421 1422 1423 1424 1425 1426 1427 1428 1429 1429 1428 1427 1426 1424 1422 1420 1418 1415 1413 1411 1409 1408 1405 1403 1402 1400 1399 1397 1395 1392
1413 1412 1412 1412 1411 1411 1410 1410 1410 1410 1410 1411 1412 1413 1414 1415 1416 1418 1420 1421 1422 1422 1422 1421 1420 1418 1417 1415 1413 1410 1407 1405 1403 1402 1399 1397 1394 1392 1391 1389 1387 1385 1382